Simultaneous Nadir Overpasses (SNOs) Predictions

Prediction of SNOs between AQUA and METOP-A Satellite Orbit:

Table of predicted SNOs for the next 14.0 days since TLE Epoch: 6/27/2015
Index Date (AQUA) Time (AQUA) Lat,Lon (AQUA) SZA (AQUA ) Date (METOP-A) Time (METOP-A) Lat,Lon (METOP-A) SZA (METOP-A ) Distance(km) Time Diff (sec)
1 06/28/2015 14:48:16 -73.87, 132.23 129.37 06/28/2015 14:47:30 -73.87, 132.16 129.36 1.96 46
2 06/28/2015 15:37:45 73.93, -60.28 50.70 06/28/2015 15:38:08 73.96, -60.29 50.73 3.15 23
3 07/01/2015 10:22:28 -73.88,-161.34 129.20 07/01/2015 10:21:49 -73.88,-161.39 129.18 1.62 39
4 07/01/2015 11:11:57 73.95, 6.14 50.88 07/01/2015 11:12:27 73.97, 6.15 50.90 2.68 30
5 07/04/2015 05:56:39 -73.91, -94.96 128.95 07/04/2015 05:56:07 -73.89, -94.96 128.95 1.41 32
6 07/04/2015 06:46:08 73.98, 72.52 51.14 07/04/2015 06:46:45 73.97, 72.57 51.13 1.41 37
7 07/07/2015 01:30:50 -73.90, -28.49 128.68 07/07/2015 01:30:26 -73.90, -28.54 128.68 1.43 24
8 07/07/2015 02:20:19 73.97, 138.98 51.41 07/07/2015 02:21:04 73.97, 138.98 51.40 0.24 45
9 07/09/2015 20:15:23 73.26,-128.31 50.95 07/09/2015 20:14:17 73.19,-131.06 51.02 88.63 66
10 07/09/2015 21:05:01 -73.91, 37.93 128.35 07/09/2015 21:04:45 -73.90, 37.88 128.36 2.41 16
11 07/09/2015 21:54:30 73.99,-154.61 51.75 07/09/2015 21:55:23 73.97,-154.62 51.72 2.71 53




NCC Satellite Simultaneous Nadir Overpasses (SNOs) Prediction Service
